Weather in Yendovishchi

Russia / Nizhny Novgorod Oblast'     55°22′33″N   45°27′25″E
temp.,
°C
wind,
m/s
gust,
m/s
humid.,
%
clouds,
%
prec.,
mm/h
press.,
hPa
HPBL,
m
22 april, thu
thu2200:00+6sw51092100 0.1 1016739
03:00+5ssw4986100 0.1 1018423
06:00+5s4985100 0.0 1019283
09:00+7sse6118398 0.0 1019439
12:00+10sw71172100 0.8 10191581
15:00+11wsw576578 1.3 10191312
18:00+10wsw366864 0.1 1021263
21:00+8sw358065 0.1 1022104
23 april, fri
fri2300:00+6ssw33815 0.0 102235
03:00+5s36795 0.0 102395
06:00+6sse497814 0.0 1023157
09:00+12sse68585 0.0 1023511
12:00+15s554717 0.0 10221501
15:00+15sse4543100 0.0 10212110
18:00+13sse225289 0.0 101929
21:00+10se4971100 0.0 1019204
24 april, sat
sat2400:00+9se3983100 0.1 1017203
03:00+8ese3785100 0.1 1015163
06:00+8ese3885100 0.0 1014251
09:00+11se5768100 0.0 1012647
12:00+13se5656100 0.0 10091413
15:00+13ese565698 0.1 10071303
18:00+11se61075100 1.0 1005958
21:00+5wsw81194100 9.2 1005599
25 april, sun
sun2500:00+5w7118578 1.4 1006902
03:00+5wsw5980100 1.5 1006804
06:00+4wsw5108614 0.0 1007488
09:00+7w69685 0.0 10081075
12:00+9w6850100 0.3 10092158
15:00+9w8105277 1.4 10111972
18:00+7wsw711579 0.4 10121157
21:00+5sw512650 0.4 1014457
26 april, mon
mon2600:00+3sw5137410 0.0 1014473
03:00+2sw511820 0.0 1015334
06:00+2sw410845 0.0 1016400
09:00+7sw686641 0.0 10151299
12:00+8sw81063100 0.6 10151515
15:00+8sw7116899 1.2 10141258
18:00+8wsw4676100 0.5 1012766
21:00+6nw2387100 1.0 1011139